Hourly Weather Roundup
Issued by NWS Central Illinois

Home | Current Version | Previous Version | Text Only | Print | Product List | Glossary On
Versions: 1 2 3 4 5 6 7 8 9 10 11 12 13 14 15 16 17 18 19 20 21 22 23 24 25 26 27 28 29 30 31 32 33 34 35 36 37 38 39 40 41 42 43 44 45 46 47 48 49 50
000
NZUS43 KILX 051710
HWRILX

AREA WEATHER ROUNDUP
NATIONAL WEATHER SERVICE, LINCOLN IL
1200 PM CDT TUE MAY 05 2015


CITY           SKY/WX    TMP DP  RH WIND       PRES   REMARKS
BLOOMINGTON    MOSUNNY   77  64  63 SW15      30.18F
CHAMPAIGN      MOSUNNY   84  54  35 SW15G24   30.18F HX  83
DANVILLE       MOSUNNY   77  58  51 SW12      30.16F
DECATUR        MOSUNNY   82  58  43 SW14G20   30.17F HX  82
EFFINGHAM      SUNNY     82  45  27 S13G18    30.22F HX  80
FLORA          MOSUNNY   81  51  35 SW13G20   30.22F HX  80
GALESBURG      PTSUNNY   74  64  72 S3        30.16S
JACKSONVILLE   MOSUNNY   83  57  39 W9G18     30.15F HX  83
LACON          PTSUNNY   73  64  71 E5        30.15F
LAWRENCEVILLE  MOSUNNY   82  51  34 SW16      30.23F HX  81
LITCHFIELD     SUNNY     81  53  38 SW12G18   30.19F HX  80
$$


CITY           SKY/WX    TMP DP  RH WIND       PRES   REMARKS
LINCOLN        MOSUNNY   82  62  49 SW6       30.14F HX  83
MACOMB         MOSUNNY   75  64  68 SW5       30.17F
MATTOON        MOSUNNY   79  53  40 SW8G20    30.19F
MT CARMEL AP   MOSUNNY   86  41  20 SW17      30.22F HX  83
OLNEY-NOBLE AP MOSUNNY   81  50  34 W10       30.22F HX  80
PARIS          MOSUNNY   84  51  32 S15G21    30.20F HX  82
PEORIA         PTSUNNY   76  63  64 VRB5      30.16F
PONTIAC        MOSUNNY   73  68  85 CALM      30.18F
RANTOUL        SUNNY     80  64  58 SW13G21   30.17F HX  81
ROBINSON       SUNNY     83  48  29 SW15G25   30.23F HX  81
SPRINGFIELD    MOSUNNY   81  56  42 SW13G23   30.16F HX  81
TAYLORVILLE    MOSUNNY   81  54  39 SW14      30.17F HX  80
$$

...REGIONAL REPORTS...


CITY           SKY/WX    TMP DP  RH WIND       PRES   REMARKS
CHICAGO O`HARE FOG       50  49  96 N10       30.24S VSB 1/2
KANKAKEE       CLOUDY    68  64  88 NE7       30.20S
MOLINE         CLOUDY    66  60  81 E6        30.17S HAZE
MOUNT VERNON   SUNNY    N/A N/A N/A SW12      30.22F
PITTSFIELD     SUNNY     81  57  43 SW10      30.16F HX  81
QUINCY         SUNNY     77  60  55 SW9       30.16S
ROCKFORD       CLOUDY    54  51  90 NE13      30.26S
$$


CITY           SKY/WX    TMP DP  RH WIND       PRES   REMARKS
BURLINGTON     CLOUDY    73  65  75 CALM      30.14F
CEDAR RAPIDS   CLOUDY    62  62 100 E12       30.16S FOG
DES MOINES     CLOUDY    73  61  65 S12       30.12R
KIRKSVILLE     MOSUNNY   77  62  59 SW10      30.15F
OTTUMWA        CLOUDY    74  61  63 S6        30.12S
ST LOUIS       MOSUNNY   84  55  36 W10       30.18F HX  83
$$


CITY           SKY/WX    TMP DP  RH WIND       PRES   REMARKS
TERRE HAUTE    MOSUNNY   82  54  37 W9        30.21F HX  81
EVANSVILLE     MOSUNNY   84  55  36 SW10      30.25F HX  83
INDIANAPOLIS   MOSUNNY   78  54  43 W12G22    30.22F
LAFAYETTE      SUNNY     76  59  55 SW9       30.19F
MADISON        LGT RAIN  52  49  89 E9        30.27F FOG
MILWAUKEE      LGT RAIN  47  44  90 NE10      30.31S FOG
$$




USA.gov is the U.S. government's official web portal to all federal, state and local government web resources and services.